Location: *
(46.1866°S, 178.5290°W)
Time: 09:46:07
(UTC+00:00)

Cosmos 1461 - Pass Details

Date: 02 October 2021
Orbit: 520 x 642 km, 65.0° (Epoch: 20 October)

Event Time Altitude Azimuth Distance (km) Brightness Sun altitude
Rises 07:42:33 0° 337° (NNW) 2,711 6.3 -17.2°
Reaches altitude 10° 07:44:44 10° 340° (NNW) 1,843 5.4 -17.6°
Maximum altitude 07:48:48 57° 59° (ENE) 681 2.9 -18.2°
Drops below altitude 10° 07:53:05 10° 137° (SE) 1,943 5.4 -18.9°
Sets 07:55:26 0° 141° (SE) 2,873 6.4 -19.2°
